TimeEDT,TemperatureF,Dew PointF,Humidity,Sea Level PressureIn,VisibilityMPH,Wind Direction,Wind SpeedMPH,Gust SpeedMPH,PrecipitationIn,Events,Conditions,WindDirDegrees,DateUTC
12:21 AM,69.8,66.2,88,29.90,1.5,Variable,6.9,-,0.12,Rain-Thunderstorm,Heavy Thunderstorms and Rain,0,2013-06-26 04:21:00
12:33 AM,69.8,66.2,88,29.93,3.0,North,4.6,-,0.20,Rain-Thunderstorm,Thunderstorms and Rain,360,2013-06-26 04:33:00
12:53 AM,69.1,66.9,93,29.90,8.0,NE,4.6,-,0.20,Thunderstorm,Overcast,40,2013-06-26 04:53:00
1:05 AM,69.8,66.2,88,29.92,9.0,Calm,Calm,-,N/A,Thunderstorm,Mostly Cloudy,0,2013-06-26 05:05:00
1:30 AM,68.0,64.4,88,29.93,10.0,ENE,10.4,-,0.00,Thunderstorm,Overcast,60,2013-06-26 05:30:00
1:39 AM,68.0,64.4,88,29.96,9.0,SSE,8.1,18.4,0.01,Rain-Thunderstorm,Light Rain,160,2013-06-26 05:39:00
1:56 AM,68.0,64.4,88,29.94,-9999.0,Variable,4.6,-,0.03,Thunderstorm,Thunderstorm,0,2013-06-26 05:56:00
2:18 AM,68.0,66.2,94,29.95,1.8,Calm,Calm,-,0.16,Rain-Thunderstorm,Heavy Thunderstorms and Rain,0,2013-06-26 06:18:00
2:37 AM,66.2,66.2,100,29.96,1.5,Variable,3.5,-,0.45,Rain-Thunderstorm,Heavy Thunderstorms and Rain,0,2013-06-26 06:37:00
2:44 AM,66.2,66.2,100,29.96,2.0,East,3.5,-,0.47,Rain-Thunderstorm,Thunderstorms and Rain,80,2013-06-26 06:44:00
2:49 AM,66.2,66.2,100,29.97,2.5,NNE,5.8,-,0.55,Rain-Thunderstorm,Thunderstorms and Rain,20,2013-06-26 06:49:00
2:53 AM,66.9,66.0,97,29.93,1.8,NE,8.1,-,0.59,Rain-Thunderstorm,Heavy Thunderstorms and Rain,50,2013-06-26 06:53:00
3:00 AM,66.2,66.2,100,29.96,2.5,ENE,9.2,-,0.03,Rain-Thunderstorm,Thunderstorms and Rain,70,2013-06-26 07:00:00
3:08 AM,66.2,66.2,100,29.95,6.0,East,10.4,-,0.04,Rain-Thunderstorm,Light Thunderstorms and Rain,100,2013-06-26 07:08:00
3:42 AM,68.0,66.2,94,29.93,8.0,ESE,4.6,-,0.11,Rain-Thunderstorm,Light Thunderstorms and Rain,110,2013-06-26 07:42:00
3:53 AM,68.0,66.0,93,29.92,7.0,NW,6.9,-,0.12,Rain-Thunderstorm,Light Thunderstorms and Rain,310,2013-06-26 07:53:00
4:12 AM,68.0,66.2,94,29.95,6.0,NNW,4.6,-,0.02,Rain,Light Rain,330,2013-06-26 08:12:00
4:53 AM,66.9,66.0,97,29.92,7.0,SSE,4.6,-,0.10,Rain,Light Rain,160,2013-06-26 08:53:00
5:14 AM,68.0,66.2,94,29.93,7.0,SE,6.9,-,0.02,Rain,Light Rain,140,2013-06-26 09:14:00
5:38 AM,66.2,66.2,100,29.91,10.0,SE,9.2,-,0.02,,Mostly Cloudy,130,2013-06-26 09:38:00
5:53 AM,66.9,64.9,93,29.88,10.0,SE,9.2,-,0.02,,Scattered Clouds,130,2013-06-26 09:53:00
6:36 AM,66.2,64.4,94,29.88,10.0,SSE,4.6,-,N/A,,Mostly Cloudy,160,2013-06-26 10:36:00
6:53 AM,66.9,64.9,93,29.88,10.0,South,3.5,-,N/A,,Scattered Clouds,170,2013-06-26 10:53:00
7:14 AM,66.2,64.4,94,29.92,10.0,West,3.5,-,N/A,,Mostly Cloudy,280,2013-06-26 11:14:00
7:53 AM,68.0,66.0,93,29.91,10.0,Calm,Calm,-,N/A,,Overcast,0,2013-06-26 11:53:00
8:51 AM,69.8,66.2,88,29.93,10.0,Calm,Calm,-,0.01,,Mostly Cloudy,0,2013-06-26 12:51:00
8:53 AM,69.1,66.0,90,29.92,10.0,SSW,3.5,-,0.01,,Mostly Cloudy,210,2013-06-26 12:53:00
9:05 AM,69.8,66.2,88,29.94,10.0,Variable,3.5,-,N/A,,Mostly Cloudy,0,2013-06-26 13:05:00
9:30 AM,71.6,66.2,83,29.92,10.0,Calm,Calm,-,N/A,,Mostly Cloudy,0,2013-06-26 13:30:00
9:44 AM,71.6,66.2,83,29.91,10.0,Calm,Calm,-,N/A,,Overcast,0,2013-06-26 13:44:00
9:53 AM,71.1,66.0,84,29.90,10.0,Calm,Calm,-,N/A,,Overcast,0,2013-06-26 13:53:00
10:31 AM,71.6,66.2,83,29.93,10.0,South,3.5,-,N/A,,Mostly Cloudy,180,2013-06-26 14:31:00
10:53 AM,73.0,68.0,84,29.91,10.0,South,4.6,-,N/A,,Scattered Clouds,180,2013-06-26 14:53:00
11:45 AM,75.2,66.2,73,29.93,10.0,WSW,9.2,-,N/A,,Mostly Cloudy,240,2013-06-26 15:45:00
11:53 AM,75.9,68.0,76,29.92,10.0,SSW,6.9,-,N/A,,Mostly Cloudy,210,2013-06-26 15:53:00
12:02 PM,75.2,66.2,73,29.94,10.0,WSW,6.9,-,N/A,,Mostly Cloudy,240,2013-06-26 16:02:00
12:53 PM,77.0,66.9,71,29.92,10.0,WSW,5.8,-,N/A,,Overcast,240,2013-06-26 16:53:00
1:53 PM,78.1,66.0,66,29.92,10.0,WSW,6.9,-,N/A,,Overcast,250,2013-06-26 17:53:00
2:45 PM,73.4,68.0,83,29.92,2.5,Calm,Calm,-,0.03,Rain,Light Rain,0,2013-06-26 18:45:00
2:53 PM,75.0,70.0,84,29.90,10.0,North,3.5,-,0.04,,Overcast,350,2013-06-26 18:53:00
3:53 PM,79.0,69.1,72,29.88,10.0,SW,9.2,-,N/A,,Scattered Clouds,220,2013-06-26 19:53:00
4:53 PM,80.1,69.1,69,29.86,10.0,WSW,3.5,-,N/A,,Scattered Clouds,250,2013-06-26 20:53:00
5:53 PM,81.0,69.1,67,29.83,10.0,SSW,6.9,-,N/A,,Partly Cloudy,210,2013-06-26 21:53:00
6:53 PM,80.1,69.1,69,29.83,10.0,South,4.6,-,N/A,,Clear,180,2013-06-26 22:53:00
7:53 PM,79.0,68.0,69,29.83,10.0,SSE,5.8,-,N/A,,Clear,160,2013-06-26 23:53:00
8:53 PM,75.9,69.1,79,29.82,10.0,SE,4.6,-,N/A,,Scattered Clouds,140,2013-06-27 00:53:00
9:53 PM,75.0,69.1,82,29.82,10.0,SSE,3.5,-,N/A,,Scattered Clouds,150,2013-06-27 01:53:00
10:30 PM,75.2,68.0,78,29.86,10.0,SW,11.5,18.4,N/A,Thunderstorm,Mostly Cloudy,230,2013-06-27 02:30:00
10:47 PM,71.6,66.2,83,29.87,1.8,WSW,6.9,17.3,0.16,Rain-Thunderstorm,Heavy Rain,250,2013-06-27 02:47:00
10:50 PM,69.8,66.2,88,29.86,1.0,SW,4.6,-,0.25,Rain-Thunderstorm,Heavy Rain,230,2013-06-27 02:50:00
10:53 PM,70.0,66.0,87,29.84,0.8,SW,4.6,-,0.31,Rain-Thunderstorm,Heavy Rain,230,2013-06-27 02:53:00
10:56 PM,69.8,66.2,88,29.86,1.0,Variable,3.5,-,0.02,Rain,Heavy Rain,0,2013-06-27 02:56:00
11:00 PM,69.8,66.2,88,29.86,1.8,Calm,Calm,-,0.02,Rain,Rain,0,2013-06-27 03:00:00
11:02 PM,69.8,66.2,88,29.86,3.0,Calm,Calm,-,0.03,Rain,Light Rain,0,2013-06-27 03:02:00
11:53 PM,69.1,66.9,93,29.81,9.0,Calm,Calm,-,0.05,,Overcast,0,2013-06-27 03:53:00